Regional Weather Roundup
Issued by NWS

Home | Current Version | Previous Version | Graphics & Text | Print | Product List | Glossary On
Versions: 1 2 3 4 5 6 7 8 9 10 11 12 13 14 15 16 17 18 19 20 21 22 23 24 25 26 27 28 29 30 31 32 33 34 35 36 37 38 39 40 41 42 43 44 45 46 47 48 49 50
000
ASUS43 KOAX 210802
RWRNE

WEATHER ROUNDUP FOR NEBRASKA
NATIONAL WEATHER SERVICE OMAHA NE
200 AM CST WED FEB 21 2018

NOTES: SATELLITE DATA IS BEING USED TO AUGMENT CLOUD COVER ABOVE
       12000 FEET.
       "FAIR" INDICATES FEW OR NO CLOUDS BELOW 12,000 FEET WITH NO
       SIGNIFICANT WEATHER AND/OR OBSTRUCTIONS TO VISIBILITY.


NEZ001>004-019>022-054>056-210900-
NEBRASKA PANHANDLE

CITY           SKY/WX    TMP DP  RH WIND       PRES   REMARKS
SCOTTSBLUFF    CLEAR     -7 -11  83 NE7       30.27S WCI -21
ALLIANCE       CLEAR    -20 -25  77 NW5       30.27R WCI -33
CHADRON        CLEAR    -13 -19  75 S3        30.31S
GORDON         FAIR      -4 -12  67 W7        30.29S WCI -18
KIMBALL        CLEAR     -4  -9  79 W10       30.21F WCI -21
SIDNEY         CLEAR     -2  -7  79 SW10      30.27R WCI -19
$$

NEZ057>060-069>072-079>082-210900-
SOUTHWEST NEBRASKA

CITY           SKY/WX    TMP DP  RH WIND       PRES   REMARKS
NORTH PLATTE   MOCLDY    -3  -8  79 CALM      30.41S
IMPERIAL       CLOUDY     6   0  76 W5        30.36R WCI  -3
LEXINGTON      CLEAR      5  -1  74 NW8       30.44S WCI  -8
MCCOOK         CLEAR      4  -1  80 W3        30.44R
OGALLALA       CLEAR     -3  -7  82 W3        30.37S
$$

NEZ005>010-023>029-035>040-094-210900-
NORTH CENTRAL NEBRASKA

CITY           SKY/WX    TMP DP  RH WIND       PRES   REMARKS
VALENTINE      CLEAR    -13 -19  75 SW7       30.41R WCI -29
AINSWORTH      CLEAR     -3  -8  77 W6        30.41R WCI -15
BROKEN BOW     PTCLDY     6  -5  60 NW14      30.41F WCI -11
O`NEILL        CLEAR     -4  -9  79 W10       30.44S WCI -21
ORD            CLEAR     -3  -7  82 NW6       30.45S WCI -15
THEDFORD       CLEAR     -5 -10  77 CALM      30.39S
$$

NEZ041-046>049-061>064-073>077-083>087-210900-
SOUTH CENTRAL NEBRASKA

CITY           SKY/WX    TMP DP  RH WIND       PRES   REMARKS
GRAND ISLAND   CLEAR      6   1  80 NW6       30.48R WCI  -4
AURORA         CLEAR      5  -1  77 N5        30.48S WCI  -4
HASTINGS       CLOUDY     5   0  79 N6        30.46F WCI  -6
HEBRON         CLOUDY    11   4  74 N7        30.51R WCI   0
HOLDREGE       CLEAR      6   2  81 N3        30.44R
KEARNEY        CLEAR      5   0  79 N7        30.45F WCI  -7
YORK           PTCLDY     5   3  92 NW8       30.49S WCI  -8
$$

NEZ011>018-030>034-042>045-210900-
NORTHEAST NEBRASKA

CITY           SKY/WX    TMP DP  RH WIND       PRES   REMARKS
NORFOLK        CLEAR      2  -2  83 W6        30.48R WCI  -9
ALBION         CLOUDY     0  -4  81 NW5       30.48R WCI -10
BLAIR          CLEAR     10   5  79 NW6       30.49R WCI   0
COLUMBUS       CLEAR      5   1  83 NW5       30.52R WCI  -4
FREMONT        CLEAR      9   4  78 NW6       30.52R WCI  -1
TEKAMAH        CLEAR      9   3  77 NW10      30.53R WCI  -5
WAYNE          PTCLDY     4  -1  79 NW5       30.49S WCI  -5
$$

NEZ050>053-065>068-078-088>093-210900-
SOUTHEAST NEBRASKA

CITY           SKY/WX    TMP DP  RH WIND       PRES   REMARKS
LINCOLN        CLEAR      9   3  77 N7        30.53R WCI  -2
OMAHA EPPLEY   CLEAR     11   4  73 N9        30.52R WCI  -2
BEATRICE       CLOUDY    12   7  79 N10       30.50R WCI  -2
FALLS CITY     CLOUDY    13   7  77 N10       30.49R WCI   0
NEBRASKA CITY  CLEAR     12   8  84 N12       30.50R WCI  -2
PLATTSMOUTH    CLEAR     11   6  81 N8        30.50R WCI  -1
$$

NEZ044-045-051>053-067-210900-
OMAHA AREA

CITY           SKY/WX    TMP DP  RH WIND       PRES   REMARKS
OMAHA EPPLEY   CLEAR     11   4  73 N9        30.52R WCI  -2
BLAIR          CLEAR     10   5  79 NW6       30.49R WCI   0
FREMONT        CLEAR      9   4  78 NW6       30.52R WCI  -1
MILLARD        CLEAR     12   5  72 NW7       30.53R WCI   2
OFFUTT AFB     CLEAR     11   4  72 N10       30.51R WCI  -2
PLATTSMOUTH    CLEAR     11   6  81 N8        30.50R WCI  -1
WAHOO          FAIR       9   4  78 NW5       30.52R WCI   1
$$




USA.gov is the U.S. government's official web portal to all federal, state and local government web resources and services.